N4PWG Weather Reports


time (UTC)temp
C
wind
direction
speed
KPH
gust
KPH
rain 1hr
cm
rain 24hr
cm
rain mn
cm
humidity
%
barometer
mb
20260906162600 35 26 0.0 0.0 0.00 0.00 0.00 63 1030.6
20260906162055 35 33 0.0 0.0 0.00 0.00 0.00 63 1030.7
20260906161550 34 77 1.6 1.6 0.00 0.00 0.00 64 1030.7
20260906161048 34 125 0.0 0.0 0.00 0.00 0.00 64 1030.7
20260906160547 33 1 0.0 1.6 0.00 0.00 0.00 66 1031.1
20260906160046 33 22 0.0 0.0 0.00 0.00 0.00 68 1030.7
20260906155544 34 37 0.0 0.0 0.00 0.00 0.00 67 1030.8
20260906155040 34 310 0.0 0.0 0.00 0.00 0.00 66 1030.9
20260906154535 33 53 0.0 1.6 0.00 0.00 0.00 67 1031.0
20260906154034 33 27 0.0 0.0 0.00 0.00 0.00 67 1030.8
20260906153533 32 230 0.0 0.0 0.00 0.00 0.00 71 1030.6
20260906153023 32 335 0.0 0.0 0.00 0.00 0.00 71 1030.8
20260906152522 32 34 0.0 0.0 0.00 0.00 0.00 69 1030.6
20260906152022 32 185 0.0 0.0 0.00 0.00 0.00 70 1030.6
20260906151517 31 51 0.0 0.0 0.00 0.00 0.00 72 1030.6
20260906151013 31 49 0.0 0.0 0.00 0.00 0.00 74 1030.5
20260906150508 31 53 0.0 0.0 0.00 0.00 0.00 75 1030.6
20260906150008 31 61 0.0 0.0 0.00 0.00 0.00 74 1030.4
20260906145502 31 55 0.0 0.0 0.00 0.00 0.00 73 1030.5
20260906145001 31 10 0.0 0.0 0.00 0.00 0.00 73 1030.4
20260906144456 31 43 0.0 1.6 0.00 0.00 0.00 75 1030.6
20260906143951 31 135 0.0 0.0 0.00 0.00 0.00 76 1030.6
20260906143447 31 153 0.0 1.6 0.00 0.00 0.00 75 1030.8
20260906142943 31 38 0.0 0.0 0.00 0.00 0.00 76 1030.6
20260906142436 30 50 0.0 0.0 0.00 0.00 0.00 77 1030.8
20260906141932 30 211 0.0 0.0 0.00 0.00 0.00 78 1030.8
20260906141426 30 135 0.0 0.0 0.00 0.00 0.00 80 1030.7
20260906140926 29 56 0.0 1.6 0.00 0.00 0.00 81 1030.5
20260906140420 29 67 0.0 0.0 0.00 0.00 0.00 80 1030.6
20260906135919 29 46 0.0 0.0 0.00 0.00 0.00 81 1030.6
20260906135418 29 49 0.0 0.0 0.00 0.00 0.00 81 1030.6
20260906134914 28 67 0.0 0.0 0.00 0.00 0.00 82 1030.6
20260906134409 28 110 0.0 0.0 0.00 0.00 0.00 83 1030.6
20260906133903 28 58 0.0 0.0 0.00 0.00 0.00 84 1030.8
20260906133359 28 60 0.0 0.0 0.00 0.00 0.00 84 1030.8
20260906132855 27 64 0.0 0.0 0.00 0.00 0.00 86 1030.9
20260906132350 27 56 0.0 0.0 0.00 0.00 0.00 88 1030.9
20260906131845 27 12 0.0 0.0 0.00 0.00 0.00 90 1030.9
20260906131341 26 68 0.0 0.0 0.00 0.00 0.00 93 1030.7
20260906130836 26 56 0.0 0.0 0.00 0.00 0.00 94 1030.7
20260906130336 25 39 0.0 0.0 0.00 0.00 0.00 96 1030.8
20260906125835 25 29 0.0 0.0 0.00 0.00 0.00 98 1030.8
20260906125332 25 50 0.0 0.0 0.00 0.00 0.00 99 1030.8
20260906124827 24 43 0.0 0.0 0.00 0.00 0.00 99 1030.7
20260906124323 24 36 0.0 0.0 0.00 0.00 0.00 99 1030.9
20260906123822 24 31 0.0 0.0 0.00 0.00 0.00 99 1030.8
20260906123317 23 22 0.0 0.0 0.00 0.00 0.00 99 1030.7
20260906122817 23 19 0.0 0.0 0.00 0.00 0.00 99 1030.7
20260906122312 23 307 0.0 0.0 0.00 0.00 0.00 99 1030.6
20260906121809 23 6 0.0 0.0 0.00 0.00 0.00 99 1030.5
20260906121305 23 11 0.0 0.0 0.00 0.00 0.00 99 1030.4
20260906120801 23 13 0.0 0.0 0.00 0.00 0.00 99 1030.5
20260906120257 23 21 0.0 0.0 0.00 0.00 0.00 99 1030.3
20260906115753 22 13 0.0 0.0 0.00 0.00 0.00 99 1030.3
20260906115248 22 17 0.0 0.0 0.00 0.00 0.00 99 1030.0
20260906114747 22 61 0.0 0.0 0.00 0.00 0.00 99 1030.0
20260906114243 22 3 0.0 0.0 0.00 0.00 0.00 99 1029.9
20260906113738 22 325 0.0 0.0 0.00 0.00 0.00 99 1029.6
20260906113237 22 326 0.0 0.0 0.00 0.00 0.00 99 1029.4
20260906112736 22 11 0.0 0.0 0.00 0.00 0.00 99 1029.4
20260906112233 22 24 0.0 0.0 0.00 0.00 0.00 99 1029.2
20260906111732 22 23 0.0 0.0 0.00 0.00 0.00 99 1029.5
20260906111227 22 31 0.0 0.0 0.00 0.00 0.00 99 1029.3
20260906110722 22 18 0.0 0.0 0.00 0.00 0.00 99 1029.1
20260906110218 22 30 0.0 0.0 0.00 0.00 0.00 99 1028.9
20260906105711 22 16 0.0 0.0 0.00 0.00 0.00 99 1029.1
20260906105208 22 18 0.0 0.0 0.00 0.00 0.00 99 1029.2
20260906104707 22 11 0.0 0.0 0.00 0.00 0.00 99 1028.9
20260906104207 22 19 0.0 0.0 0.00 0.00 0.00 99 1029.0
20260906103704 22 11 0.0 0.0 0.00 0.00 0.00 99 1028.8
20260906103159 22 16 0.0 0.0 0.00 0.00 0.00 99 1028.9
20260906102655 23 16 0.0 0.0 0.00 0.00 0.00 99 1028.9
20260906102154 23 3 0.0 0.0 0.00 0.00 0.00 99 1029.1
20260906101653 22 12 0.0 0.0 0.00 0.00 0.00 99 1028.9
20260906101148 22 356 0.0 0.0 0.00 0.00 0.00 99 1028.8
20260906100645 22 6 0.0 0.0 0.00 0.00 0.00 99 1028.7
20260906100144 22 12 0.0 0.0 0.00 0.00 0.00 99 1028.7
20260906095639 22 9 0.0 0.0 0.00 0.00 0.00 99 1028.7
20260906095135 23 12 0.0 0.0 0.00 0.00 0.00 99 1028.9
20260906094634 23 23 0.0 0.0 0.00 0.00 0.00 99 1028.7
20260906094130 23 41 0.0 0.0 0.00 0.00 0.00 99 1028.8
20260906093626 23 22 0.0 0.0 0.00 0.00 0.00 99 1028.9
20260906093125 23 19 0.0 0.0 0.00 0.00 0.00 99 1028.7
20260906092620 23 7 0.0 0.0 0.00 0.00 0.00 99 1028.9
20260906092116 23 5 0.0 0.0 0.00 0.00 0.00 99 1028.8
20260906091612 23 5 0.0 0.0 0.00 0.00 0.00 99 1028.6
20260906091109 23 3 0.0 0.0 0.00 0.00 0.00 99 1028.7
20260906090608 23 25 0.0 0.0 0.00 0.00 0.00 99 1028.7
20260906090103 23 17 0.0 0.0 0.00 0.00 0.00 99 1028.7
20260906085602 23 14 0.0 0.0 0.00 0.00 0.00 99 1028.8
20260906085102 23 6 0.0 0.0 0.00 0.00 0.00 99 1028.7
20260906084557 23 17 0.0 0.0 0.00 0.00 0.00 99 1028.6
20260906084055 23 17 0.0 0.0 0.00 0.00 0.00 99 1028.5
20260906083551 23 12 0.0 0.0 0.00 0.00 0.00 99 1028.7
20260906083051 23 46 0.0 0.0 0.00 0.00 0.00 99 1028.5
20260906082546 23 1 1.6 1.6 0.00 0.00 0.00 99 1028.6
20260906082042 23 12 0.0 0.0 0.00 0.00 0.00 99 1028.7
20260906081538 23 14 0.0 0.0 0.00 0.00 0.00 99 1028.8
20260906081033 23 26 0.0 0.0 0.00 0.00 0.00 99 1028.6
20260906080529 23 26 0.0 0.0 0.00 0.00 0.00 99 1028.6
20260906080026 23 17 0.0 0.0 0.00 0.00 0.00 99 1028.6
20260906075525 23 28 0.0 0.0 0.00 0.00 0.00 99 1028.5
20260906075020 23 26 0.0 0.0 0.00 0.00 0.00 99 1028.8
20260906074515 23 25 0.0 0.0 0.00 0.00 0.00 99 1028.7
20260906074013 23 34 0.0 0.0 0.00 0.00 0.00 99 1028.5
20260906073508 23 17 0.0 0.0 0.00 0.00 0.00 99 1028.3
20260906073004 23 18 0.0 0.0 0.00 0.00 0.00 99 1028.4
20260906072459 23 23 0.0 0.0 0.00 0.00 0.00 99 1028.3
20260906071955 24 18 0.0 0.0 0.00 0.00 0.00 99 1028.2
20260906071451 24 12 0.0 0.0 0.00 0.00 0.00 99 1028.4
20260906070946 24 15 0.0 0.0 0.00 0.00 0.00 99 1028.3
20260906070442 24 15 0.0 0.0 0.00 0.00 0.00 99 1028.5
20260906065938 24 4 0.0 0.0 0.00 0.00 0.00 99 1028.4
20260906065432 24 24 0.0 0.0 0.00 0.00 0.00 99 1028.5
20260906064928 24 17 0.0 0.0 0.00 0.00 0.00 99 1028.5
20260906064424 24 12 0.0 0.0 0.00 0.00 0.00 99 1028.7
20260906063924 24 12 0.0 0.0 0.00 0.00 0.00 99 1028.7
20260906063419 24 5 0.0 0.0 0.00 0.00 0.00 99 1028.7
20260906062914 24 11 0.0 0.0 0.00 0.00 0.00 99 1028.6
20260906062414 24 5 0.0 0.0 0.00 0.00 0.00 99 1028.7
20260906061910 24 11 0.0 0.0 0.00 0.00 0.00 99 1028.7
20260906061406 25 11 0.0 0.0 0.00 0.00 0.00 99 1028.9
20260906060900 25 12 0.0 0.0 0.00 0.00 0.00 99 1028.8
20260906060358 25 18 0.0 0.0 0.00 0.00 0.00 99 1029.1
20260906055853 25 0 0.0 0.0 0.00 0.00 0.00 99 1028.8
20260906055349 24 8 0.0 0.0 0.00 0.00 0.00 99 1028.9
20260906054844 25 31 0.0 0.0 0.00 0.00 0.00 99 1029.0
20260906054338 25 5 0.0 0.0 0.00 0.00 0.00 99 1029.1
20260906053835 25 28 0.0 0.0 0.00 0.00 0.00 99 1029.1
20260906053331 25 10 0.0 0.0 0.00 0.00 0.00 99 1028.9
20260906052826 25 26 0.0 0.0 0.00 0.00 0.00 99 1029.0
20260906052322 25 8 0.0 0.0 0.00 0.00 0.00 99 1028.9
20260906051819 25 14 0.0 0.0 0.00 0.00 0.00 99 1028.8
20260906051318 25 15 0.0 0.0 0.00 0.00 0.00 99 1029.1
20260906050814 25 339 0.0 0.0 0.00 0.00 0.00 99 1029.2
20260906050309 25 14 0.0 0.0 0.00 0.00 0.00 99 1028.9
20260906045808 25 12 0.0 0.0 0.00 0.00 0.00 99 1029.0
20260906045305 25 24 0.0 0.0 0.00 0.00 0.00 99 1028.7
20260906044759 25 9 0.0 0.0 0.00 0.00 0.00 99 1028.9
20260906044253 25 9 0.0 0.0 0.00 0.00 0.00 99 1029.0
20260906043749 25 16 0.0 0.0 0.00 0.00 0.00 99 1028.8
20260906043245 25 9 0.0 0.0 0.00 0.00 0.00 99 1029.0
20260906042744 25 12 0.0 0.0 0.00 0.00 0.00 99 1028.8
20260906042244 25 358 0.0 0.0 0.00 0.00 0.00 99 1029.0
20260906041739 25 23 0.0 0.0 0.00 0.00 0.00 99 1028.9
20260906041234 25 19 0.0 0.0 0.00 0.00 0.00 99 1028.8
20260906040730 25 14 0.0 0.0 0.00 0.00 0.00 99 1029.1
20260906040225 25 32 0.0 0.0 0.00 0.00 0.00 99 1028.9
20260906035721 25 22 0.0 0.0 0.00 0.00 0.00 99 1028.8
20260906035216 25 29 0.0 0.0 0.00 0.00 0.00 99 1028.7
20260906034716 25 31 0.0 0.0 0.00 0.00 0.00 99 1028.8
20260906034211 25 18 0.0 0.0 0.00 0.00 0.00 99 1028.7
20260906033707 25 19 0.0 0.0 0.00 0.00 0.00 99 1028.6
20260906033201 25 16 0.0 0.0 0.00 0.00 0.00 99 1028.9
20260906032658 25 17 0.0 0.0 0.00 0.00 0.00 99 1028.9
20260906032158 25 27 0.0 0.0 0.00 0.00 0.00 98 1028.6
20260906031653 25 25 0.0 0.0 0.00 0.00 0.00 98 1028.6
20260906031148 25 25 0.0 0.0 0.00 0.00 0.00 98 1028.6
20260906030647 26 16 0.0 0.0 0.00 0.00 0.00 97 1028.8
20260906030143 26 22 0.0 0.0 0.00 0.00 0.00 97 1028.6
20260906025642 26 26 0.0 0.0 0.00 0.00 0.00 97 1028.6
20260906025142 26 26 0.0 0.0 0.00 0.00 0.00 97 1028.6
20260906024637 26 47 0.0 0.0 0.00 0.00 0.00 97 1028.5
20260906024136 26 19 0.0 0.0 0.00 0.00 0.00 96 1028.5
20260906023632 26 5 0.0 0.0 0.00 0.00 0.00 96 1028.4
20260906023133 26 5 0.0 0.0 0.00 0.00 0.00 96 1028.4
20260906022633 26 15 0.0 0.0 0.00 0.00 0.00 96 1028.3
20260906022129 26 5 0.0 0.0 0.00 0.00 0.00 95 1028.5
20260906021624 26 18 0.0 0.0 0.00 0.00 0.00 94 1028.2
20260906021123 26 26 0.0 0.0 0.00 0.00 0.00 94 1028.3
20260906020623 26 23 0.0 0.0 0.00 0.00 0.00 94 1028.1
20260906020118 27 24 0.0 0.0 0.00 0.00 0.00 94 1027.9
20260906015612 27 23 0.0 0.0 0.00 0.00 0.00 93 1028.1
20260906015111 27 26 0.0 0.0 0.00 0.00 0.00 93 1027.9
20260906014606 27 26 0.0 0.0 0.00 0.00 0.00 92 1027.9
20260906014102 27 22 0.0 0.0 0.00 0.00 0.00 92 1028.0
20260906013557 27 28 0.0 0.0 0.00 0.00 0.00 92 1027.7
20260906013052 27 25 0.0 0.0 0.00 0.00 0.00 92 1027.7
20260906012547 27 26 0.0 0.0 0.00 0.00 0.00 92 1027.7
20260906012047 27 33 0.0 0.0 0.00 0.00 0.00 91 1027.7
20260906011543 27 58 0.0 0.0 0.00 0.00 0.00 91 1027.6
20260906011042 28 38 0.0 0.0 0.00 0.00 0.00 90 1027.5
20260906010538 28 35 0.0 0.0 0.00 0.00 0.00 89 1027.6
20260906010034 28 86 0.0 0.0 0.00 0.00 0.00 88 1027.9
20260906005533 28 23 0.0 0.0 0.00 0.00 0.00 86 1027.6
20260906005033 29 23 0.0 0.0 0.00 0.00 0.00 85 1027.4
20260906004532 29 34 0.0 0.0 0.00 0.00 0.00 85 1027.4
20260906004027 30 48 0.0 0.0 0.00 0.00 0.00 85 1027.3
20260906003523 30 44 0.0 0.0 0.00 0.00 0.00 84 1027.2
20260906003019 30 47 0.0 0.0 0.00 0.00 0.00 83 1027.3
20260906002519 31 58 0.0 0.0 0.00 0.00 0.00 81 1027.5
20260906002014 31 48 0.0 0.0 0.00 0.00 0.00 80 1027.2
20260906001509 32 62 0.0 0.0 0.00 0.00 0.00 78 1027.4
20260906001004 32 73 0.0 0.0 0.00 0.00 0.00 76 1027.5
20260906000500 32 52 0.0 0.0 0.00 0.00 0.00 74 1027.6
20260905235954 33 57 0.0 0.0 0.00 0.00 0.00 70 1027.5
20260905235454 33 56 0.0 0.0 0.00 0.00 0.00 67 1027.7
20260905234948 35 45 0.0 0.0 0.00 0.00 0.00 63 1027.6
20260905234439 35 45 0.0 0.0 0.00 0.00 0.00 60 1027.7
20260905233938 35 21 0.0 1.6 0.00 0.00 0.00 59 1027.7
20260905233434 35 37 0.0 0.0 0.00 0.00 0.00 58 1027.6
20260905232932 36 35 0.0 1.6 0.00 0.00 0.00 58 1027.9
20260905232429 36 32 0.0 0.0 0.00 0.00 0.00 57 1027.5
20260905231924 36 57 0.0 0.0 0.00 0.00 0.00 56 1027.6
20260905231420 36 31 3.2 4.8 0.00 0.00 0.00 55 1027.8
20260905230916 37 69 0.0 0.0 0.00 0.00 0.00 52 1027.6
20260905230415 37 40 1.6 3.2 0.00 0.00 0.00 52 1027.5
20260905225913 37 59 1.6 1.6 0.00 0.00 0.00 51 1027.5
20260905225409 37 37 1.6 1.6 0.00 0.00 0.00 51 1027.6
20260905224903 38 37 0.0 1.6 0.00 0.00 0.00 50 1027.4
20260905224359 37 43 0.0 0.0 0.00 0.00 0.00 51 1027.5
20260905223853 37 33 1.6 3.2 0.00 0.00 0.00 50 1027.5
20260905223352 37 27 3.2 3.2 0.00 0.00 0.00 50 1027.7
20260905222851 37 35 1.6 3.2 0.00 0.00 0.00 50 1027.7
20260905222350 38 53 3.2 3.2 0.00 0.00 0.00 49 1027.8
20260905221846 38 21 0.0 0.0 0.00 0.00 0.00 50 1027.5
20260905221343 38 35 0.0 1.6 0.00 0.00 0.00 50 1027.7
20260905220839 38 35 0.0 0.0 0.00 0.00 0.00 48 1027.7
20260905220335 37 65 0.0 0.0 0.00 0.00 0.00 48 1027.5
20260905215834 38 96 0.0 0.0 0.00 0.00 0.00 50 1027.7
20260905215330 38 8 3.2 3.2 0.00 0.00 0.00 47 1027.7
20260905214826 38 357 0.0 0.0 0.00 0.00 0.00 47 1027.5
20260905214321 38 22 3.2 4.8 0.00 0.00 0.00 48 1027.6
20260905213816 38 42 0.0 0.0 0.00 0.00 0.00 48 1027.7
20260905213312 38 353 1.6 3.2 0.00 0.00 0.00 48 1027.7
20260905212813 38 0 1.6 3.2 0.00 0.00 0.00 49 1027.7
20260905212313 38 40 1.6 1.6 0.00 0.00 0.00 49 1027.7
20260905211813 38 10 1.6 1.6 0.00 0.00 0.00 48 1027.7
20260905211308 38 75 0.0 0.0 0.00 0.00 0.00 50 1027.8
20260905210804 38 60 1.6 3.2 0.00 0.00 0.00 48 1027.9
20260905210304 38 2 0.0 1.6 0.00 0.00 0.00 50 1027.9
20260905205803 38 42 0.0 0.0 0.00 0.00 0.00 48 1028.1
20260905205258 38 54 4.8 4.8 0.00 0.00 0.00 48 1028.0
20260905204757 38 31 3.2 4.8 0.00 0.00 0.00 46 1028.0
20260905204253 38 28 3.2 4.8 0.00 0.00 0.00 47 1028.0
20260905203752 38 64 0.0 0.0 0.00 0.00 0.00 49 1028.1
20260905203248 38 17 0.0 0.0 0.00 0.00 0.00 50 1028.4
20260905202743 38 23 3.2 4.8 0.00 0.00 0.00 47 1028.3
20260905202238 38 14 0.0 0.0 0.00 0.00 0.00 48 1028.4
20260905201734 38 34 0.0 1.6 0.00 0.00 0.00 49 1028.4
20260905201229 39 301 0.0 0.0 0.00 0.00 0.00 47 1028.2
20260905200723 38 13 1.6 1.6 0.00 0.00 0.00 47 1028.5
20260905200219 38 29 1.6 1.6 0.00 0.00 0.00 48 1028.6
20260905195717 38 280 1.6 1.6 0.00 0.00 0.00 48 1028.7
20260905195212 38 345 3.2 8.0 0.00 0.00 0.00 49 1028.9
20260905194708 38 23 0.0 0.0 0.00 0.00 0.00 46 1029.0
20260905194207 38 321 0.0 0.0 0.00 0.00 0.00 52 1029.0
20260905193701 37 85 0.0 0.0 0.00 0.00 0.00 53 1029.1
20260905193157 38 269 0.0 1.6 0.00 0.00 0.00 48 1029.2
20260905192652 38 25 8.0 9.7 0.00 0.00 0.00 48 1029.3
20260905192149 38 85 3.2 4.8 0.00 0.00 0.00 48 1029.4
20260905191648 37 12 1.6 3.2 0.00 0.00 0.00 47 1029.4
20260905191146 37 45 0.0 0.0 0.00 0.00 0.00 51 1029.4
20260905190645 37 207 1.6 3.2 0.00 0.00 0.00 54 1029.7
20260905190144 37 51 0.0 0.0 0.00 0.00 0.00 51 1029.7
20260905185643 38 210 0.0 0.0 0.00 0.00 0.00 48 1029.9
20260905185138 38 243 0.0 1.6 0.00 0.00 0.00 48 1029.9
20260905184637 38 129 1.6 3.2 0.00 0.00 0.00 53 1029.9
20260905184137 37 71 0.0 1.6 0.00 0.00 0.00 50 1029.8
20260905183636 38 21 0.0 0.0 0.00 0.00 0.00 51 1029.7
20260905183131 37 25 0.0 0.0 0.00 0.00 0.00 49 1029.9
20260905182631 37 233 0.0 1.6 0.00 0.00 0.00 51 1030.3
20260905182131 37 54 0.0 1.6 0.00 0.00 0.00 50 1029.9
20260905181626 37 128 1.6 3.2 0.00 0.00 0.00 50 1030.0
20260905181125 37 219 1.6 1.6 0.00 0.00 0.00 53 1029.9
20260905180620 37 44 0.0 0.0 0.00 0.00 0.00 53 1030.0
20260905180115 36 66 0.0 1.6 0.00 0.00 0.00 53 1030.3
20260905175614 36 21 1.6 3.2 0.00 0.00 0.00 54 1030.5
20260905175109 36 33 1.6 3.2 0.00 0.00 0.00 56 1030.4
20260905174605 36 77 0.0 0.0 0.00 0.00 0.00 56 1030.4
20260905174100 35 44 0.0 0.0 0.00 0.00 0.00 59 1030.4
20260905173557 36 48 0.0 0.0 0.00 0.00 0.00 62 1030.4
20260905173052 36 64 0.0 0.0 0.00 0.00 0.00 58 1030.6
20260905172550 36 36 1.6 3.2 0.00 0.00 0.00 54 1030.4
20260905172046 37 341 0.0 0.0 0.00 0.00 0.00 58 1030.5
20260905171543 36 60 0.0 0.0 0.00 0.00 0.00 55 1030.8
20260905171038 37 59 0.0 0.0 0.00 0.00 0.00 53 1030.7
20260905170535 37 302 0.0 0.0 0.00 0.00 0.00 53 1030.8
20260905170029 36 286 0.0 0.0 0.00 0.00 0.00 53 1030.9
20260905165524 36 182 1.6 1.6 0.00 0.00 0.00 54 1030.8
20260905165014 36 244 1.6 3.2 0.00 0.00 0.00 53 1030.9
20260905164514 36 271 0.0 0.0 0.00 0.00 0.00 57 1031.0
20260905164008 36 51 0.0 0.0 0.00 0.00 0.00 58 1031.2
20260905163505 36 235 0.0 0.0 0.00 0.00 0.00 56 1031.2
20260905163000 36 195 1.6 3.2 0.00 0.00 0.00 55 1031.1